Delano, MN

6:13 AM CST on March 03, 2015 (GMT -0600)
DrewKat | Change Station
CLOSE
Current Station
Personal Weather Station
Location: Delano, MN
Elevation: 988 ft
Nearby Weather Stations
Active Advisory: Winter Weather Advisory

Elev 988 ft 45.00 °N, 93.86 °W | Updated 1 minute ago

Overcast
Overcast
21.7 °F
Feels Like 15 °F
N
4.7
Wind Variable Wind from SSE

Today
High -- | Low -- °F
--% Chance of Precip.
Yesterday
High -- | Low -- °F
Precip. -- in
6:49 AM 6:05 PM
Waxing Gibbous, 95% visible
Pressure 29.74 in
Visibility 10.0 miles
Clouds Scattered Clouds 4700 ft
Overcast 6000 ft
Windchill 15 °F
Dew Point 20 °F
Humidity 92%
Rainfall 0.00 in
Snow Depth Not available.
UV 0 out of 12
Pollen .50 out of 12
Air Quality Not available.
Flu Activity Not available.
METAR KCFE 031155Z AUTO 12004KT 10SM SCT047 OVC060 M05/M10 A2974 RMK AO2 7//// T10551097 11050 21055

More Conditions Fewer Conditions

Pressure 29.74 in
Visibility 10.0 miles
Clouds Scattered Clouds 4700 ft
Overcast 6000 ft
Windchill 15 °F
Dew Point 20 °F
Humidity 92%
Rainfall 0.00 in
Snow Depth Not available.
UV 0 out of 12
Pollen .50 out of 12
Air Quality Not available.
Flu Activity Not available.
METAR KCFE 031155Z AUTO 12004KT 10SM SCT047 OVC060 M05/M10 A2974 RMK AO2 7//// T10551097 11050 21055

More Conditions Fewer Conditions

10-Day Weather Forecast

Almanac

Astronomy

Mar. 03, 2015 Rise Set
Actual Time
Civil Twilight
Nautical Twilight
Astronomical Twilight
Moon
Length of Visible Light
Length of Day
Tomorrow will be .
, % of the Moon is Illuminated

Today's Extremes

State Highs State Lows

Community

WunderPhotos

Upload Photos

1,802,090 photos uploaded!

WunderBlogs® & News

Nearby

Air Quality

  Air Quality AQ Index Pollutant
Not available.

Snow Depth

Station Depth Elevation

Earthquake Activity

City Distance Mag. Time & Date
Minimum magnitude displayed is 2.5.

Coastal Water Temperatures

Place Temperature

Nearby Weather Stations

Winter Weather Advisory
Statement as of 4:13 AM CST on March 03, 2015

... Winter Weather Advisory remains in effect until 9 PM CST this
evening...

* timing... snow will develop early this morning and taper off by
early afternoon as northwest winds increase behind a cold front.
The strong winds will produce areas of blowing snow through
early evening.

* Snow accumulations... 1 to 3 inches.

* Winds/visibility... wind gusts around 35 mph will produce areas
of blowing snow and visibilities less than one mile in open
areas.

* Impacts... travel may be difficult.

Precautionary/preparedness actions...

A Winter Weather Advisory for snow and blowing snow means that
visibilities will be limited due to a combination of falling and
blowing snow. Use caution when traveling... especially in open
areas.



Borghoff